Location: Antioch Church
(34.9543°N, 88.5145°W)
Time: 20:06:30
(UTC+00:00)

Cosmos 1461 - Pass Details

Date: 11 December 2019
Orbit: 518 x 649 km, 65.0° (Epoch: 21 January)

Event Time Altitude Azimuth Distance (km) Brightness Sun altitude
Exits shadow 11:42:45 22° 285° (WNW) 1,319 4.1 -13.8°
Maximum altitude 11:44:25 29° 248° (WSW) 1,122 4.0 -13.5°
Drops below altitude 10° 11:48:16 10° 188° (S) 1,973 5.8 -12.7°
Sets 11:50:48 0° 177° (S) 2,895 6.8 -12.2°
